| time (UTC) | temp C | wind direction | speed KPH | gust KPH | rain 1hr cm | rain 24hr cm | rain mn cm | humidity % | barometer mb |
| 20260507060313 | 9 | 0 | 0.0 | 0.0 | 0.00 | 0.23 | 0.03 | 89 | 1011.5 |
| 20260507053313 | 6 | 0 | 0.0 | 0.0 | 0.00 | 0.23 | 0.03 | 94 | 1010.7 |
| 20260507050313 | 6 | 0 | 0.0 | 0.0 | 0.00 | 0.23 | 0.03 | 93 | 1010.2 |
| 20260507043313 | 6 | 0 | 0.0 | 0.0 | 0.00 | 0.23 | 0.03 | 94 | 1010.5 |
| 20260507040313 | 6 | 0 | 0.0 | 0.0 | 0.00 | 0.23 | 0.03 | 94 | 1010.3 |
| 20260507033312 | 6 | 0 | 0.0 | 0.0 | 0.00 | 0.23 | 0.03 | 94 | 1010.2 |
| 20260507030312 | 6 | 0 | 0.0 | 0.0 | 0.00 | 0.23 | 0.03 | 94 | 1010.1 |
| 20260507023312 | 6 | 292 | 0.0 | 3.2 | 0.00 | 0.23 | 0.03 | 94 | 1010.1 |
| 20260507013313 | 7 | 0 | 0.0 | 0.0 | 0.00 | 0.23 | 0.03 | 95 | 1010.2 |
| 20260507010312 | 7 | 0 | 0.0 | 0.0 | 0.00 | 0.23 | 0.03 | 95 | 1010.2 |
| 20260507003312 | 7 | 0 | 0.0 | 0.0 | 0.00 | 0.23 | 0.03 | 95 | 1010.2 |
| 20260507000314 | 7 | 292 | 1.6 | 6.4 | 0.00 | 0.23 | 0.03 | 95 | 1010.6 |
| 20260506233312 | 7 | 292 | 3.2 | 6.4 | 0.00 | 0.23 | 0.03 | 96 | 1010.7 |
| 20260506220312 | 7 | 292 | 3.2 | 3.2 | 0.00 | 0.23 | 0.23 | 95 | 1010.3 |
| 20260506203311 | 8 | 315 | 1.6 | 4.8 | 0.03 | 0.23 | 0.23 | 95 | 1009.7 |
| 20260506200311 | 8 | 292 | 3.2 | 6.4 | 0.03 | 0.23 | 0.23 | 95 | 1009.8 |
| 20260506193311 | 9 | 0 | 0.0 | 0.0 | 0.05 | 0.20 | 0.20 | 96 | 1009.9 |
| 20260506190311 | 9 | 0 | 0.0 | 0.0 | 0.05 | 0.20 | 0.20 | 95 | 1009.2 |
| 20260506183311 | 10 | 0 | 0.0 | 0.0 | 0.05 | 0.15 | 0.15 | 95 | 1008.4 |
| 20260506180311 | 10 | 0 | 0.0 | 0.0 | 0.03 | 0.15 | 0.15 | 95 | 1008.6 |
| 20260506173311 | 10 | 0 | 0.0 | 0.0 | 0.00 | 0.13 | 0.13 | 94 | 1007.8 |
| 20260506170310 | 10 | 0 | 0.0 | 0.0 | 0.03 | 0.13 | 0.13 | 94 | 1007.6 |
| 20260506160310 | 10 | 0 | 0.0 | 0.0 | 0.03 | 0.10 | 0.10 | 94 | 1007.9 |
| 20260506153310 | 10 | 0 | 0.0 | 0.0 | 0.05 | 0.10 | 0.10 | 93 | 1008.0 |
| 20260506150311 | 11 | 0 | 0.0 | 0.0 | 0.03 | 0.08 | 0.08 | 92 | 1008.4 |
| 20260506140310 | 11 | 0 | 0.0 | 0.0 | 0.03 | 0.05 | 0.05 | 88 | 1008.6 |
| 20260506133310 | 12 | 0 | 0.0 | 0.0 | 0.00 | 0.05 | 0.05 | 85 | 1009.2 |
| 20260506130310 | 12 | 0 | 0.0 | 0.0 | 0.03 | 0.05 | 0.05 | 85 | 1009.2 |
| 20260506123310 | 12 | 0 | 0.0 | 0.0 | 0.03 | 0.05 | 0.05 | 84 | 1009.8 |
| 20260506120309 | 13 | 270 | 0.0 | 3.2 | 0.00 | 0.03 | 0.03 | 78 | 1009.8 |
| 20260506113309 | 13 | 0 | 0.0 | 0.0 | 0.00 | 0.03 | 0.03 | 77 | 1010.1 |
| 20260506110310 | 13 | 202 | 0.0 | 6.4 | 0.00 | 0.03 | 0.03 | 77 | 1010.0 |
| 20260506103309 | 13 | 157 | 4.8 | 9.7 | 0.00 | 0.03 | 0.03 | 74 | 1010.2 |
| 20260506100309 | 12 | 202 | 1.6 | 6.4 | 0.00 | 0.03 | 0.03 | 73 | 1010.5 |
| 20260506093309 | 12 | 90 | 0.0 | 3.2 | 0.00 | 0.03 | 0.03 | 78 | 1010.6 |
| 20260506090310 | 11 | 0 | 0.0 | 0.0 | 0.03 | 0.03 | 0.03 | 78 | 1010.6 |
| 20260506083309 | 11 | 180 | 0.0 | 3.2 | 0.03 | 0.03 | 0.03 | 79 | 1010.6 |
| 20260506080309 | 11 | 0 | 0.0 | 0.0 | 0.00 | 0.00 | 0.00 | 76 | 1010.2 |
| 20260506073309 | 11 | 135 | 1.6 | 4.8 | 0.00 | 0.00 | 0.00 | 74 | 1010.4 |
| 20260506070308 | 11 | 157 | 1.6 | 4.8 | 0.00 | 0.00 | 0.00 | 75 | 1010.0 |